Rbgn^[z[y[W
メイン
   新天体発見情報
     Comet C/2025 K4 (Siverd)
投稿するにはまず登録を

フラット表示 前のトピック | 次のトピック
投稿者 スレッド
佐藤裕久
投稿日時: 2025-6-14 0:13
モデレータ
登録日: 2005-6-12
居住地: 日本
投稿: 2669
オンライン
Comet C/2025 K4 (Siverd)

Robert Siverd (ハワイ大学天文学研究所)の通報によると、3月30日UT、南アフリカ Sutherlandに
ある小惑星地球衝突最終警報システム Asteroid Terrestrial-impact Last Alert System (ATLAS)
調査プログラムのコースに0.5-m Schmidt 反射望遠鏡で得たCCD画像から拡散した彗星を発見した。
この彗星は、6"のシーイングで、14".4(半値全幅:FWHM)のコマが見えるが、尾は確認できなかった。
小惑星センターのPCCP webpageに公表後、佐藤英貴氏(東京都文京区, 4月19.45-19.46日UT、60-秒
CCD露出20枚のスタック, 0.32-m f/9.0 Ritchey-Chretien 望遠鏡, Siding Spring, NSW,オースト
ラリア, 遠隔操作:強く集光した7"のコマが見えるが尾はなかった。3".8の円形範囲で測定した光度
は19.3等であった。

彗星機能の報告は次のとおり、

OC   Date        Reporter            Coma    Tail   PA   Comet     Date
                                                        (T/P)   Reported
M22  2025-05-30  R. Siverd          20"                   T   2025-05-31.17
Q62  2025-05-31  H. Sato             7"                   T   2025-06-04.08

発見位置は次のとおり(PCCP A11o6Jn)、

     2025 UT             R.A. (2000) Decl.       Mag.
     May  30.95302   15 52 45.21   -67 26 34.0   19.1
          30.95667   15 52 44.85   -67 26 32.1   19.2
          30.96257   15 52 44.92   -67 26 27.5   19.3
          30.97268   15 52 44.19   -67 26 21.1   19.0

MPCの楕円軌道要素は次のとおり、

Orbital elements:
    C/2025 K4 (Siverd)                                                          
Epoch 2025 May 5.0 TT = JDT 2460800.5                                           
T 2025 July 27.88407 TT                                 Pike                    
q   2.5367534            (2000.0)            P               Q                  
z  +0.0230098      Peri.  326.76386     -0.00090449     +0.83170149             
 +/-0.0131943      Node   297.07082     -0.72629821     -0.38219491             
e   0.9416297      Incl.   38.57465     -0.68737915     +0.40274021             
From 23 observations 2025 May 30-June 6, mean residual 0".5.                    
                                                                                
Ephemeris:
Date    TT    R. A. (2000) Decl.     Delta      r    Elong.  Phase   m1
2025 05 10    16 08 57.3 -69 40 36   1.9346  2.6669   127.0    17.6  19.8
...
2025 05 25    15 57 19.8 -68 24 10   1.8307  2.6231   132.5    16.5  19.6
...
2025 06 02    15 51 20.3 -67 03 09   1.7903  2.6032   134.5    16.1  19.5
...
2025 06 08    15 47 50.2 -65 44 29   1.7677  2.5899   135.4    16.0  19.5
2025 06 09    15 47 21.8 -65 29 59   1.7646  2.5878   135.4    16.0  19.5
2025 06 10    15 46 55.4 -65 15 05   1.7617  2.5858   135.5    16.0  19.5
...
2025 06 16    15 45 01.9 -63 38 10   1.7484  2.5744   135.6    16.0  19.4
...
2025 06 24    15 44 36.6 -61 11 10   1.7422  2.5615   134.7    16.4  19.4
...
2025 07 09    15 50 10.3 -55 58 44   1.7678  2.5445   130.1    17.8  19.4

(MPEC 2025-L55、CBET 5565)

フラット表示 前のトピック | 次のトピック

題名 投稿者 日時
 » Comet C/2025 K4 (Siverd) 佐藤裕久 2025-6-14 0:13

投稿するにはまず登録を
 
© 1999 Tsutomu Seki.